Location: Oriwa
(40.7500°S, 175.3333°E)
Time: 14:15:15
(UTC+00:00)

Cosmos 1833 Rocket - Pass Details

Date: 03 February 2023
Orbit: 831 x 841 km, 71.0° (Epoch: 30 March)

Event Time Altitude Azimuth Distance (km) Brightness Sun altitude
Rises 12:00:59 0° 211° (SSW) 3,422 6.8 -32.3°
Reaches altitude 10° 12:03:34 10° 218° (SW) 2,478 5.8 -32.3°
Enters shadow 12:07:14 33° 250° (WSW) 1,396 4.0 -32.4°
